This is the latest recevied weather packets stored in our database for station/object K3RUP-1. If no packets are shown the sender has not sent any weather packets the latest 10 day(s).
| Time | Temp. | Humidity | Pressure | Rain* | Wind** | Luminosity | Snow |
|---|---|---|---|---|---|---|---|
| 1778013907 | 27.22° C | 46% | 1008.3 hPa | 0 mm | - | 272 W/m² | - |
| 1778013603 | 27.22° C | 46% | 1008.2 hPa | 0 mm | - | 453 W/m² | - |
| 1778013300 | 26.67° C | 47% | 1008.1 hPa | 0 mm | - | 443 W/m² | - |
| 1778012996 | 27.78° C | 46% | 1008.4 hPa | 0 mm | - | 450 W/m² | - |
| 1778012693 | 27.78° C | 45% | 1008.5 hPa | 0 mm | - | 435 W/m² | - |
| 1778012389 | 27.22° C | 46% | 1008.4 hPa | 0 mm | - | 506 W/m² | - |
| 1778012086 | 26.67° C | 48% | 1008.5 hPa | 0 mm | - | 455 W/m² | - |
| 1778011784 | 27.22° C | 47% | 1008.3 hPa | 0 mm | - | 499 W/m² | - |
| 1778011482 | 27.78° C | 46% | 1008.6 hPa | 0 mm | - | 495 W/m² | - |
| 1778011177 | 27.78° C | 47% | 1008.6 hPa | 0 mm | - | 518 W/m² | - |
| 1778010874 | 27.22° C | 46% | 1008.7 hPa | 0 mm | - | 458 W/m² | - |
| 1778010572 | 27.22° C | 47% | 1008.6 hPa | 0 mm | - | 527 W/m² | - |
| 1778010269 | 27.78° C | 47% | 1008.7 hPa | 0 mm | - | 578 W/m² | - |
| 1778009969 | 27.78° C | 47% | 1009.1 hPa | 0 mm | - | 565 W/m² | - |
| 1778009667 | 27.22° C | 46% | 1009 hPa | 0 mm | - | 504 W/m² | - |
| 1778009364 | 27.22° C | 47% | 1008.9 hPa | 0 mm | - | 569 W/m² | - |
| 1778009062 | 27.22° C | 46% | 1009.1 hPa | 0 mm | - | 564 W/m² | - |
| 1778008760 | 27.78° C | 46% | 1009.4 hPa | 0 mm | - | 604 W/m² | - |
| 1778008458 | 28.33° C | 45% | 1009 hPa | 0 mm | - | 592 W/m² | - |
| 1778008155 | 28.33° C | 45% | 1009.3 hPa | 0 mm | - | 627 W/m² | - |
| 1778007850 | 29.44° C | 39% | 1009.3 hPa | 0 mm | - | 631 W/m² | - |
| 1778007545 | 30° C | 33% | 1009.4 hPa | 0 mm | - | 621 W/m² | - |
| 1778007243 | 29.44° C | 35% | 1009.6 hPa | 0 mm | - | 648 W/m² | - |
| 1778006939 | 29.44° C | 33% | 1009.4 hPa | 0 mm | - | 702 W/m² | - |
| 1778006636 | 30° C | 36% | 1009.7 hPa | 0 mm | - | 649 W/m² | - |
* Rain latest hour (hover to see other rain measurements)
** Current wind speed in m/s (hover to see current wind gust speed)